Rhinelander, WI

12:50 AM CST on February 20, 2018 (GMT -0600)
Rhinelander-Oneida County

Weather History for KRHI - September, 2013

Change the Weather History Date:

Tuesday, September 10, 2013

  Actual Average Record
Temperature  
Mean Temperature 70 °F 58 °F  
Max Temperature 82 °F 69 °F 98 °F (1908)
Min Temperature 58 °F 47 °F 25 °F (1917)
Degree Days  
Heating Degree Days 0 8  
Month to date heating degree days 46 65  
Since 1 July heating degree days 236 192  
Cooling Degree Days 5 1  
Month to date cooling degree days 15 10  
Year to date cooling degree days 279 251  
Growing Degree Days 20 (Base 50)    
Moisture  
Dew Point 66 °F    
Average Humidity 76    
Maximum Humidity 100    
Minimum Humidity 51    
Precipitation  
Precipitation 0.06 in 0.14 in 2.23 in (1928)
Month to date precipitation 0.25 1.35  
Year to date precipitation 27.09 22.23  
Snow  
Snow 0.00 in - T in (2014)
Month to date snowfall 0.0  
Since 1 July snowfall 0.0  
Since 1 September snowfall 0.0  
Snow Depth 0.00 in    
Sea Level Pressure  
Sea Level Pressure 29.85 in    
Wind  
Wind Speed 6 mph (WSW)    
Max Wind Speed 18 mph    
Max Gust Speed 24 mph    
Visibility 6 miles    
Events Rain    
T = Trace of Precipitation, MM = Missing Value Source: NWS Daily Summary

Daily Weather History Graph

Daily Weather History Graph

Search for Another Location

Airport or City:

Trip Planner

Search our weather history database for the weather conditions in past years. The results will help you decide how hot, cold, wet, or windy it might be!

Date:

Astronomy

Sep. 10, 2013 Rise Set
Actual Time 6:30 AM CDT 7:18 PM CDT
Civil Twilight 6:00 AM CDT 7:48 PM CDT
Nautical Twilight 5:24 AM CDT 8:23 PM CDT
Astronomical Twilight 4:47 AM CDT 9:01 PM CDT
Moon 12:14 PM CDT (9/10) 10:02 PM CDT (9/10)
Length of Visible Light 13h 47m
Length of Day
12h 47m
Waxing Crescent, 28% of the Moon is Illuminated
Sep 10
Waxing Crescent
Sep 12
First Quarter
Sep 19
Full
Sep 26
Last Quarter
Oct 4
New

Hourly Weather History & Observations

Time (CDT) Temp. Heat Index Dew Point Humidity Pressure Visibility Wind Dir Wind Speed Gust Speed Precip Events Conditions
12:53 AM 70.0 °F - 69.1 °F 97% 29.75 in 5.0 mi West 4.6 mph - N/A   Clear
1:28 AM 68.0 °F - 68.0 °F 100% 29.77 in 1.5 mi SW 3.5 mph - N/A   Clear
1:45 AM 68.0 °F - 66.2 °F 94% 29.78 in 3.0 mi WSW 3.5 mph - N/A   Clear
1:53 AM 69.1 °F - 68.0 °F 96% 29.77 in 3.0 mi West 4.6 mph - N/A   Clear
2:14 AM 66.2 °F - 66.2 °F 100% 29.79 in 2.0 mi WSW 4.6 mph - N/A   Clear
2:38 AM 66.2 °F - 66.2 °F 100% 29.80 in 0.8 mi SW 3.5 mph - N/A   Partly Cloudy
2:53 AM 68.0 °F - 66.9 °F 96% 29.78 in 2.0 mi West 4.6 mph - N/A   Mostly Cloudy
3:05 AM 69.8 °F - 68.0 °F 94% 29.80 in 3.0 mi WSW 3.5 mph - 0.01 in   Mostly Cloudy
3:14 AM 69.8 °F - 68.0 °F 94% 29.80 in 2.5 mi WSW 3.5 mph - 0.01 in   Mostly Cloudy
3:27 AM 69.8 °F - 68.0 °F 94% 29.81 in 3.0 mi WSW 3.5 mph - 0.01 in   Overcast
3:49 AM 69.8 °F - 68.0 °F 94% 29.80 in 2.5 mi Calm Calm - 0.01 in   Overcast
3:53 AM 69.1 °F - 68.0 °F 96% 29.78 in 2.5 mi Calm Calm - 0.01 in   Mostly Cloudy
4:18 AM 68.0 °F - 66.2 °F 94% 29.81 in 1.8 mi West 5.8 mph - N/A   Scattered Clouds
4:24 AM 68.0 °F - 68.0 °F 100% 29.81 in 2.0 mi West 4.6 mph - N/A   Mostly Cloudy
4:50 AM 69.8 °F - 69.8 °F 100% 29.82 in 3.0 mi WSW 3.5 mph - N/A   Overcast
4:53 AM 70.0 °F - 69.1 °F 97% 29.80 in 3.0 mi WSW 3.5 mph - N/A   Overcast
5:14 AM 69.8 °F - 69.8 °F 100% 29.83 in 4.0 mi WSW 3.5 mph - N/A   Overcast
5:51 AM 69.8 °F - 68.0 °F 94% 29.83 in 4.0 mi West 5.8 mph - N/A   Mostly Cloudy
5:53 AM 69.1 °F - 68.0 °F 96% 29.81 in 4.0 mi West 5.8 mph - N/A   Mostly Cloudy
6:03 AM 69.8 °F - 68.0 °F 94% 29.83 in 4.0 mi WSW 5.8 mph - N/A   Scattered Clouds
6:53 AM 69.1 °F - 68.0 °F 96% 29.82 in 3.0 mi WSW 4.6 mph - N/A   Clear
7:24 AM 69.8 °F - 68.0 °F 94% 29.85 in 2.5 mi WSW 5.8 mph - N/A   Clear
7:32 AM 69.8 °F - 68.0 °F 94% 29.85 in 3.0 mi WSW 8.1 mph - N/A   Clear
7:53 AM 71.1 °F - 69.1 °F 93% 29.84 in 3.0 mi WSW 9.2 mph - N/A   Scattered Clouds
8:05 AM 69.8 °F - 66.2 °F 88% 29.87 in 5.0 mi West 17.3 mph 24.2 mph N/A   Mostly Cloudy
8:41 AM 69.8 °F - 66.2 °F 88% 29.88 in 7.0 mi West 8.1 mph - N/A   Overcast
8:53 AM 70.0 °F - 66.9 °F 90% 29.86 in 8.0 mi West 9.2 mph - N/A   Overcast
9:02 AM 71.6 °F - 66.2 °F 83% 29.89 in 10.0 mi WNW 10.4 mph 18.4 mph N/A   Mostly Cloudy
9:27 AM 73.4 °F - 66.2 °F 78% 29.90 in 10.0 mi West 12.7 mph 19.6 mph N/A   Mostly Cloudy
9:53 AM 73.0 °F - 66.0 °F 79% 29.88 in 10.0 mi West 8.1 mph - N/A   Overcast
10:39 AM 75.2 °F - 66.2 °F 73% 29.90 in 10.0 mi WSW 8.1 mph - N/A   Scattered Clouds
10:53 AM 75.9 °F - 64.9 °F 69% 29.88 in 10.0 mi WSW 12.7 mph - N/A   Partly Cloudy
11:53 AM 78.1 °F - 64.0 °F 62% 29.88 in 10.0 mi WSW 6.9 mph - N/A   Partly Cloudy
12:53 PM 81.0 °F 81.7 °F 61.0 °F 50% 29.88 in 10.0 mi WSW 10.4 mph 19.6 mph N/A   Partly Cloudy
1:53 PM 77.0 °F - 61.0 °F 58% 29.91 in 10.0 mi West 8.1 mph - N/A   Overcast
2:53 PM 73.9 °F - 64.0 °F 71% 29.92 in 9.0 mi WNW 8.1 mph - 0.00 in Rain Light Rain
3:53 PM 68.0 °F - 64.9 °F 90% 29.94 in 10.0 mi NW 3.5 mph - 0.05 in   Overcast
4:53 PM 68.0 °F - 64.9 °F 90% 29.93 in 10.0 mi SSW 3.5 mph - 0.00 in Rain Light Rain
5:53 PM 68.0 °F - 64.9 °F 90% 29.93 in 10.0 mi SW 5.8 mph - 0.00 in   Overcast
6:53 PM 66.9 °F - 64.9 °F 93% 29.94 in 10.0 mi SW 5.8 mph - N/A   Overcast
7:53 PM 64.9 °F - 59.0 °F 81% 29.94 in 10.0 mi WSW 9.2 mph - N/A   Partly Cloudy
8:53 PM 59.0 °F - 57.0 °F 93% 29.96 in 10.0 mi Calm Calm - N/A   Clear
9:53 PM 59.0 °F - 57.0 °F 93% 29.95 in 10.0 mi West 3.5 mph - N/A   Clear
10:53 PM 60.1 °F - 57.9 °F 93% 29.95 in 10.0 mi West 3.5 mph - N/A   Clear
11:53 PM 61.0 °F - 57.9 °F 90% 29.95 in 10.0 mi West 4.6 mph - N/A   Clear